Language selection

Weather shortcuts

Dixon Entrance East: Past 24 Hour Conditions

 

Sandspit Airport

08:00 PM PDT 21 May 2024
Disclaimer

This table is a summary of hourly weather conditions for the past 24 hours.
Please note that these observations might not always be representative of weather conditions over their associated marine area.

Date / Time
(PDT)
Wind(knots) Conditions Visibility(km) Pressure(kPa) Air tempC) Relative humidity(%) Dew pointC)
21 May 2024
20:00 N 16 Sunny 16 102.0 12 62 5
19:00 N 15 Sunny 16 102.0 13 58 5
18:00 N 14 gusts 19 Sunny 16 101.9 14 58 5
17:00 N 16 Sunny 16 102.0 13 56 5
16:00 N 14 Sunny 16 102.0 13 58 5
15:00 N 17 Partly Cloudy 16 102.0 13 61 5
14:00 N 16 Mainly Sunny 16 102.0 13 58 5
13:00 NNW 15 gusts 21 Mainly Sunny 16 102.0 12 61 5
12:00 NNW 16 Mostly Cloudy 16 102.0 11 60 4
11:00 NNW 12 Mostly Cloudy 16 102.0 10 62 3
10:00 N 13 Partly Cloudy 16 102.0 10 61 3
9:00 NW 12 Mainly Sunny 16 102.0 10 61 3
8:00 WNW 10 Mostly Cloudy 16 102.0 8 68 2
7:00 WNW 10 Mostly Cloudy 16 102.0 8 72 3
6:00 WNW 7 Cloudy 16 102.0 7 74 3
5:00 NW 9 Cloudy 16 102.0 8 77 4
4:00 NNW 10 Cloudy 16 102.0 8 77 4
3:00 NNW 12 Mostly Cloudy 16 102.0 8 79 5
2:00 N 10 Cloudy 16 102.0 9 82 6
1:00 NE 7 Partly Cloudy 16 102.0 9 80 5
0:00 NNE 7 Cloudy 16 102.0 9 77 5
20 May 2024
23:00 ENE 7 Cloudy 16 102.0 9 78 5
22:00 ENE 10 Cloudy 16 102.0 9 79 6
21:00 E 8 Cloudy 16 102.0 10 82 7
20:00 ESE 5 Cloudy 16 102.0 10 78 6

Zoom-in to make a selection

Map of Pacific - North Coast marine weather areas Middle Nomad - 46004 South Nomad - 46036 Dixon Entrance Central - 46145 South Moresby - 46147 Nanakwa Shoal - 46181 North Hecate Strait - 46183 North Nomad - 46184 South Hecate Strait - 46185 West Sea Otter - 46204 West Dixon Entrance - 46205 East Dellwood - 46207 West Moresby - 46208 Sartine Island Cape St.James Kindakun Rocks Langara Island Masset Municipal Airport Rose Spit Sandspit Airport Bella Bella Airport Bella Coola Airport Bonilla Island Cathedral Point Cumshewa Island Grey Islet Holland Rock Lucy Islands Lightstation Prince Rupert Airport
Legend:
buoy Buoy
land station Land Station

Pacific - North Coast Area

Another Region

Date modified: